STARLINK-32867, 62855

Orbit data source: Space-Track

STARLINK-32867, 62855 is a payload satellite owned by SpaceX/Seattle (US) in LEO that was launched on Sat, 01 Feb 2025 UTC via an FALCON 9 launch vehicle from the Air Force Western Test Range (AFWTR). Payload-class satellites include a variety of spacecraft equipped with specific instruments for various scientific and technological missions. These include communications satellites like Starlink; space stations such as the ISS; scientific satellites like the Hubble; Earth observation satellites from companies like Planet Labs, Umbra, and HawkEye 360; GPS; miniature CubeSats for education and research; and military/defense satellites.

Loading next visibility...
Identifier
62855, 2025-022B
Orbit
LEO
Country
Flag of USUS
Related business
Manufacturer
SpaceX/Seattle
Mission
Operational Commercial Communications
Bus & Motor
STARLINK V2M, Unknown motor
Mass
730 kg wet, ~700 kg dry
Launch date (UTC)
2025-02-01 (1 year ago)
Launch vehicle
FALCON 9
Launch site
Air Force Western Test Range (AFWTR)
Object type
Payload
Rocket body
Debris
Shape & HBR
Box + 2 Pan, 17.7 m
Radar Cross Section
33.884 m², Large (>1 m²)

Expand to show TLE details & history
Last TLE update: 9 hours ago

TLE from 9 hours ago
0 STARLINK-32867
1 62855U 25022B   26036.81040338  .00030103  00000-0  10232-2 0  9998
2 62855  53.1576 277.3672 0001370  71.6823 288.4327 15.30236095 57029
Epoch: 2026-02-05T19:26Z
TLE epoch observation values (Epoch: 2026-02-05T19:26:58.852Z)
Latitude
0.00003°
Longitude
-150.33529°
Altitude
475.71 km
Speed
7.629 km/s
True Right ascension
18h 29m 28s
True Declination
0° 00' 00"
Sunlit
Object was in daylight at epoch
Visualization orbit readout
Latitude
Unknown
Longitude
Unknown
Altitude
Unknown
Speed
Unknown
Apparent Right ascension
Unknown
Apparent Declination
Unknown
Sunlit
N/A
Visualization observer readout
Local Sidereal Time
06:07:37
Azimuth
Unknown
Elevation
Unknown
Doppler factor
Unknown
Orbital elements
Apogee altitude
476.303 km
Perigee altitude
474.425 km
Semi-major axis
6,853.501 km
Eccentricity
0.00014
Inclination
53.1576°
RAAN
277.3672°
Arg. of periapsis
71.6823°
True anomaly
288.41781°
Mean anomaly
288.4327°
Eccentric anomaly
288.42525°
Mean motion
3.82538 °/min
Orbital period
94.11 mins
BSTAR
0.0010232
Loading maneuver chart data...
Computing Atmospheric mass density...
Loading historical data...
Loading historical data...
Loading historical data...
Loading historical data...
Loading historical data...
Loading historical data...
Loading historical data...

Documentation

Showing up to 5 results
|